Time,TemperatureF,DewpointF,PressureIn,WindDirection,WindDirectionDegrees,WindSpeedMPH,WindSpeedGustMPH,Humidity,HourlyPrecipIn,Conditions,Clouds,dailyrainin,SoftwareType,DateUTC
2013-01-22 00:01:00,40.0,34.0,30.08,North,7,0.0,0.0,78,0.00,,,0.00,,2013-01-22 08:01:00,
2013-01-22 00:11:00,40.0,34.0,30.08,North,7,0.0,0.0,78,0.00,,,0.00,,2013-01-22 08:11:00,
2013-01-22 00:22:00,40.0,34.0,30.08,North,7,0.0,0.0,78,0.00,,,0.00,,2013-01-22 08:22:00,
2013-01-22 00:32:00,40.0,34.0,30.08,North,7,0.0,0.0,78,0.00,,,0.00,,2013-01-22 08:32:00,
2013-01-22 00:42:00,40.0,34.0,30.08,North,7,0.0,0.0,78,0.00,,,0.00,,2013-01-22 08:42:00,
2013-01-22 00:52:00,40.0,33.0,30.08,North,7,0.0,0.0,77,0.00,,,0.00,,2013-01-22 08:52:00,
2013-01-22 01:02:00,40.0,33.0,30.09,North,7,0.0,0.0,77,0.00,,,0.00,,2013-01-22 09:02:00,
2013-01-22 01:11:00,40.0,33.0,30.09,North,7,0.0,0.0,77,0.00,,,0.00,,2013-01-22 09:11:00,
2013-01-22 01:22:00,39.0,33.0,30.08,North,7,0.0,0.0,80,0.00,,,0.00,,2013-01-22 09:22:00,
2013-01-22 01:32:00,40.0,35.0,30.07,North,7,0.0,0.0,82,0.00,,,0.00,,2013-01-22 09:32:00,
2013-01-22 01:42:00,40.0,35.0,30.07,North,7,0.0,0.0,82,0.00,,,0.00,,2013-01-22 09:42:00,
2013-01-22 01:52:00,39.0,35.0,30.07,North,7,0.0,0.0,86,0.00,,,0.00,,2013-01-22 09:52:00,
2013-01-22 02:01:00,40.0,36.0,30.08,North,7,0.0,0.0,87,0.00,,,0.00,,2013-01-22 10:01:00,
2013-01-22 02:11:00,40.0,36.0,30.08,North,7,0.0,0.0,87,0.00,,,0.00,,2013-01-22 10:11:00,
2013-01-22 02:22:00,39.0,36.0,30.07,North,7,0.0,0.0,88,0.00,,,0.00,,2013-01-22 10:22:00,
2013-01-22 02:32:00,39.0,36.0,30.07,North,7,0.0,0.0,89,0.00,,,0.00,,2013-01-22 10:32:00,
2013-01-22 02:42:00,39.0,36.0,30.07,North,7,0.0,0.0,89,0.00,,,0.00,,2013-01-22 10:42:00,
2013-01-22 02:52:00,39.0,36.0,30.06,North,7,0.0,0.0,90,0.00,,,0.00,,2013-01-22 10:52:00,
2013-01-22 03:02:00,39.0,36.0,30.06,North,7,0.0,0.0,89,0.00,,,0.00,,2013-01-22 11:02:00,
2013-01-22 03:11:00,39.0,36.0,30.06,North,7,0.0,0.0,89,0.00,,,0.00,,2013-01-22 11:11:00,
2013-01-22 03:22:00,38.0,35.0,30.06,North,7,0.0,0.0,90,0.00,,,0.00,,2013-01-22 11:22:00,
2013-01-22 03:32:00,38.0,36.0,30.05,North,7,0.0,0.0,91,0.00,,,0.00,,2013-01-22 11:32:00,
2013-01-22 03:42:00,38.0,36.0,30.05,North,7,0.0,0.0,91,0.00,,,0.00,,2013-01-22 11:42:00,
2013-01-22 03:53:00,38.0,36.0,30.05,North,7,0.0,0.0,91,0.00,,,0.00,,2013-01-22 11:53:00,
2013-01-22 04:02:00,38.0,36.0,30.04,East,96,3.0,3.0,91,0.00,,,0.00,,2013-01-22 12:02:00,
2013-01-22 04:11:00,38.0,36.0,30.04,East,96,3.0,3.0,91,0.00,,,0.00,,2013-01-22 12:11:00,
2013-01-22 04:22:00,38.0,36.0,30.04,East,94,0.0,3.0,92,0.00,,,0.00,,2013-01-22 12:22:00,
2013-01-22 04:32:00,38.0,36.0,30.04,East,94,0.0,3.0,92,0.00,,,0.00,,2013-01-22 12:32:00,
2013-01-22 04:42:00,38.0,36.0,30.04,ESE,111,0.0,0.0,93,0.00,,,0.00,,2013-01-22 12:42:00,
2013-01-22 04:52:00,37.0,35.0,30.04,ESE,104,1.0,2.0,93,0.00,,,0.00,,2013-01-22 12:52:00,
2013-01-22 05:03:00,38.0,36.0,30.04,East,86,0.0,0.0,93,0.00,,,0.00,,2013-01-22 13:03:00,
2013-01-22 05:11:00,38.0,36.0,30.04,East,86,0.0,0.0,93,0.00,,,0.00,,2013-01-22 13:11:00,
2013-01-22 05:22:00,38.0,36.0,30.03,East,86,0.0,0.0,92,0.00,,,0.00,,2013-01-22 13:22:00,
2013-01-22 05:33:00,38.0,36.0,30.03,East,86,0.0,0.0,92,0.00,,,0.00,,2013-01-22 13:33:00,
2013-01-22 05:42:00,38.0,36.0,30.03,East,86,0.0,0.0,92,0.00,,,0.00,,2013-01-22 13:42:00,
2013-01-22 05:52:00,37.0,35.0,30.03,East,86,0.0,0.0,92,0.00,,,0.00,,2013-01-22 13:52:00,
2013-01-22 06:02:00,37.0,35.0,30.04,NNE,19,0.0,0.0,93,0.00,,,0.00,,2013-01-22 14:02:00,
2013-01-22 06:12:00,37.0,35.0,30.04,NNE,19,0.0,0.0,93,0.00,,,0.00,,2013-01-22 14:12:00,
2013-01-22 06:22:00,37.0,35.0,30.04,East,91,2.0,3.0,93,0.00,,,0.00,,2013-01-22 14:22:00,
2013-01-22 06:33:00,37.0,35.0,30.04,ENE,62,0.0,0.0,94,0.00,,,0.00,,2013-01-22 14:33:00,
2013-01-22 06:42:00,37.0,35.0,30.04,ENE,62,0.0,0.0,94,0.00,,,0.00,,2013-01-22 14:42:00,
2013-01-22 06:52:00,37.0,35.0,30.04,ENE,62,0.0,0.0,94,0.00,,,0.00,,2013-01-22 14:52:00,
2013-01-22 07:03:00,37.0,36.0,30.03,ENE,62,0.0,0.0,95,0.00,,,0.00,,2013-01-22 15:03:00,
2013-01-22 07:12:00,37.0,36.0,30.03,ENE,62,0.0,0.0,95,0.00,,,0.00,,2013-01-22 15:12:00,
2013-01-22 07:22:00,37.0,35.0,30.03,ENE,62,0.0,0.0,94,0.00,,,0.00,,2013-01-22 15:22:00,
2013-01-22 07:33:00,37.0,36.0,30.03,SW,229,2.0,2.0,95,0.00,,,0.00,,2013-01-22 15:33:00,
2013-01-22 07:42:00,37.0,36.0,30.03,SW,229,2.0,2.0,95,0.00,,,0.00,,2013-01-22 15:42:00,
2013-01-22 07:52:00,38.0,37.0,30.03,East,84,1.0,4.0,95,0.00,,,0.00,,2013-01-22 15:52:00,
2013-01-22 08:03:00,37.0,36.0,30.04,ESE,105,0.0,3.0,95,0.00,,,0.00,,2013-01-22 16:03:00,
2013-01-22 08:12:00,37.0,36.0,30.04,ESE,105,0.0,3.0,95,0.00,,,0.00,,2013-01-22 16:12:00,
2013-01-22 08:22:00,37.0,36.0,30.04,ESE,105,0.0,0.0,95,0.00,,,0.00,,2013-01-22 16:22:00,
2013-01-22 08:33:00,38.0,37.0,30.04,ESE,105,0.0,0.0,95,0.00,,,0.00,,2013-01-22 16:33:00,
2013-01-22 08:42:00,38.0,37.0,30.04,ESE,105,0.0,0.0,95,0.00,,,0.00,,2013-01-22 16:42:00,
2013-01-22 08:53:00,39.0,38.0,30.04,ESE,105,0.0,0.0,95,0.00,,,0.00,,2013-01-22 16:53:00,
2013-01-22 09:03:00,40.0,39.0,30.06,ESE,105,0.0,0.0,95,0.00,,,0.00,,2013-01-22 17:03:00,
2013-01-22 09:12:00,40.0,39.0,30.06,ESE,105,0.0,0.0,95,0.00,,,0.00,,2013-01-22 17:12:00,
2013-01-22 09:22:00,42.0,40.0,30.06,ESE,105,0.0,0.0,92,0.00,,,0.00,,2013-01-22 17:22:00,
2013-01-22 09:33:00,44.0,42.0,30.06,ESE,105,0.0,0.0,91,0.00,,,0.00,,2013-01-22 17:33:00,
2013-01-22 09:43:00,44.0,42.0,30.06,ESE,105,0.0,0.0,91,0.00,,,0.00,,2013-01-22 17:43:00,
2013-01-22 09:53:00,45.0,41.0,30.06,ESE,105,0.0,0.0,86,0.00,,,0.00,,2013-01-22 17:53:00,
2013-01-22 10:03:00,47.0,41.0,30.06,ESE,105,0.0,0.0,81,0.00,,,0.00,,2013-01-22 18:03:00,
2013-01-22 10:12:00,47.0,41.0,30.06,ESE,105,0.0,0.0,81,0.00,,,0.00,,2013-01-22 18:12:00,
2013-01-22 10:22:00,49.0,43.0,30.06,ESE,105,0.0,0.0,80,0.00,,,0.00,,2013-01-22 18:22:00,
2013-01-22 10:33:00,51.0,43.0,30.08,West,281,1.0,3.0,73,0.00,,,0.00,,2013-01-22 18:33:00,
2013-01-22 10:42:00,51.0,43.0,30.08,West,281,1.0,3.0,73,0.00,,,0.00,,2013-01-22 18:42:00,
2013-01-22 10:53:00,52.0,42.0,30.08,NNW,337,0.0,2.0,68,0.00,,,0.00,,2013-01-22 18:53:00,
2013-01-22 11:03:00,55.0,43.0,30.07,WSW,247,1.0,2.0,63,0.00,,,0.00,,2013-01-22 19:03:00,
2013-01-22 11:12:00,55.0,43.0,30.07,WSW,247,1.0,2.0,63,0.00,,,0.00,,2013-01-22 19:12:00,
2013-01-22 11:22:00,56.0,43.0,30.08,NW,317,2.0,5.0,62,0.00,,,0.00,,2013-01-22 19:22:00,
2013-01-22 11:33:00,58.0,44.0,30.07,SW,234,1.0,3.0,60,0.00,,,0.00,,2013-01-22 19:33:00,
2013-01-22 11:42:00,58.0,44.0,30.07,SW,234,1.0,3.0,60,0.00,,,0.00,,2013-01-22 19:42:00,
2013-01-22 11:53:00,57.0,42.0,30.07,WNW,294,2.0,6.0,58,0.00,,,0.00,,2013-01-22 19:53:00,
2013-01-22 12:02:00,58.0,43.0,30.05,West,261,1.0,6.0,58,0.00,,,0.00,,2013-01-22 20:02:00,
2013-01-22 12:12:00,58.0,43.0,30.05,West,261,1.0,6.0,58,0.00,,,0.00,,2013-01-22 20:12:00,
2013-01-22 12:22:00,59.0,42.0,30.05,NW,319,2.0,5.0,53,0.00,,,0.00,,2013-01-22 20:22:00,
2013-01-22 12:33:00,59.0,42.0,30.05,West,263,0.0,2.0,54,0.00,,,0.00,,2013-01-22 20:33:00,
2013-01-22 12:42:00,59.0,42.0,30.05,West,263,0.0,2.0,54,0.00,,,0.00,,2013-01-22 20:42:00,
2013-01-22 12:52:00,59.0,42.0,30.04,NNW,338,4.0,7.0,54,0.00,,,0.00,,2013-01-22 20:52:00,
2013-01-22 13:02:00,62.0,44.0,30.03,NW,306,4.0,6.0,52,0.00,,,0.00,,2013-01-22 21:02:00,
2013-01-22 13:12:00,62.0,44.0,30.03,NW,306,4.0,6.0,52,0.00,,,0.00,,2013-01-22 21:12:00,
2013-01-22 13:22:00,62.0,43.0,30.02,NW,310,6.0,9.0,50,0.00,,,0.00,,2013-01-22 21:22:00,
2013-01-22 13:33:00,64.0,45.0,30.03,WNW,300,4.0,8.0,51,0.00,,,0.00,,2013-01-22 21:33:00,
2013-01-22 13:52:00,64.0,44.0,30.01,WNW,299,5.0,9.0,49,0.00,,,0.00,,2013-01-22 21:52:00,
2013-01-22 14:02:00,61.0,44.0,30.01,NW,317,4.0,10.0,53,0.00,,,0.00,,2013-01-22 22:02:00,
2013-01-22 14:12:00,61.0,44.0,30.01,NW,317,4.0,10.0,53,0.00,,,0.00,,2013-01-22 22:12:00,
2013-01-22 14:22:00,61.0,44.0,30.01,NW,314,5.0,8.0,54,0.00,,,0.00,,2013-01-22 22:22:00,
2013-01-22 14:32:00,61.0,44.0,30.01,NW,314,5.0,8.0,54,0.00,,,0.00,,2013-01-22 22:32:00,
2013-01-22 14:42:00,62.0,45.0,30.00,NW,322,3.0,6.0,54,0.00,,,0.00,,2013-01-22 22:42:00,
2013-01-22 14:52:00,61.0,44.0,30.00,NW,305,4.0,6.0,54,0.00,,,0.00,,2013-01-22 22:52:00,
2013-01-22 15:02:00,60.0,44.0,30.00,WNW,302,3.0,5.0,56,0.00,,,0.00,,2013-01-22 23:02:00,
2013-01-22 15:12:00,60.0,44.0,30.00,WNW,302,3.0,5.0,56,0.00,,,0.00,,2013-01-22 23:12:00,
2013-01-22 15:22:00,60.0,44.0,30.01,NNW,327,2.0,5.0,56,0.00,,,0.00,,2013-01-22 23:22:00,
2013-01-22 15:33:00,59.0,44.0,30.00,NW,323,2.0,5.0,58,0.00,,,0.00,,2013-01-22 23:33:00,
2013-01-22 15:42:00,59.0,44.0,30.00,NW,323,2.0,5.0,58,0.00,,,0.00,,2013-01-22 23:42:00,
2013-01-22 15:52:00,58.0,44.0,30.00,NW,309,3.0,5.0,60,0.00,,,0.00,,2013-01-22 23:52:00,
2013-01-22 16:02:00,57.0,44.0,30.00,West,281,1.0,5.0,61,0.00,,,0.00,,2013-01-23 00:02:00,
2013-01-22 16:12:00,57.0,44.0,30.00,West,281,1.0,5.0,61,0.00,,,0.00,,2013-01-23 00:12:00,
2013-01-22 16:22:00,57.0,44.0,30.00,NW,308,2.0,3.0,62,0.00,,,0.00,,2013-01-23 00:22:00,
2013-01-22 16:33:00,55.0,43.0,29.98,NW,310,0.0,1.0,64,0.00,,,0.00,,2013-01-23 00:33:00,
2013-01-22 16:42:00,55.0,43.0,29.98,NW,310,0.0,1.0,64,0.00,,,0.00,,2013-01-23 00:42:00,
2013-01-22 16:52:00,55.0,44.0,29.98,NW,310,0.0,0.0,67,0.00,,,0.00,,2013-01-23 00:52:00,
2013-01-22 17:02:00,54.0,43.0,30.00,NW,315,1.0,3.0,67,0.00,,,0.00,,2013-01-23 01:02:00,
2013-01-22 17:12:00,54.0,43.0,30.00,NW,315,1.0,3.0,67,0.00,,,0.00,,2013-01-23 01:12:00,
2013-01-22 17:22:00,53.0,43.0,29.99,NW,320,0.0,0.0,69,0.00,,,0.00,,2013-01-23 01:22:00,
2013-01-22 17:32:00,51.0,43.0,29.99,NW,320,0.0,0.0,74,0.00,,,0.00,,2013-01-23 01:32:00,
2013-01-22 17:42:00,51.0,43.0,29.99,NW,320,0.0,0.0,74,0.00,,,0.00,,2013-01-23 01:42:00,
2013-01-22 17:52:00,50.0,43.0,29.99,NW,320,0.0,0.0,76,0.00,,,0.00,,2013-01-23 01:52:00,
2013-01-22 18:03:00,49.0,43.0,29.99,SE,141,3.0,5.0,81,0.00,,,0.00,,2013-01-23 02:03:00,
2013-01-22 18:12:00,49.0,43.0,29.99,SE,141,3.0,5.0,81,0.00,,,0.00,,2013-01-23 02:12:00,
2013-01-22 18:22:00,49.0,44.0,29.99,SSW,195,1.0,4.0,83,0.00,,,0.00,,2013-01-23 02:22:00,
2013-01-22 18:32:00,48.0,43.0,29.99,SE,129,2.0,3.0,83,0.00,,,0.00,,2013-01-23 02:32:00,
2013-01-22 18:42:00,48.0,43.0,29.99,SE,129,2.0,3.0,83,0.00,,,0.00,,2013-01-23 02:42:00,
2013-01-22 18:52:00,48.0,43.0,29.99,ENE,73,2.0,2.0,83,0.00,,,0.00,,2013-01-23 02:52:00,
2013-01-22 19:02:00,48.0,43.0,29.99,ENE,60,0.0,3.0,83,0.00,,,0.00,,2013-01-23 03:02:00,
2013-01-22 19:12:00,48.0,43.0,29.99,ENE,60,0.0,3.0,83,0.00,,,0.00,,2013-01-23 03:12:00,
2013-01-22 19:22:00,48.0,43.0,29.99,East,79,0.0,2.0,82,0.00,,,0.00,,2013-01-23 03:22:00,
2013-01-22 19:32:00,47.0,42.0,29.99,ENE,57,0.0,4.0,84,0.00,,,0.00,,2013-01-23 03:32:00,
2013-01-22 19:42:00,47.0,42.0,29.99,ENE,57,0.0,4.0,84,0.00,,,0.00,,2013-01-23 03:42:00,
2013-01-22 19:52:00,47.0,42.0,29.99,East,81,2.0,4.0,83,0.00,,,0.00,,2013-01-23 03:52:00,
2013-01-22 20:02:00,47.0,41.0,29.99,SE,132,2.0,3.0,81,0.00,,,0.00,,2013-01-23 04:02:00,
2013-01-22 20:12:00,47.0,41.0,29.99,SE,132,2.0,3.0,81,0.00,,,0.00,,2013-01-23 04:12:00,
2013-01-22 20:22:00,47.0,41.0,29.98,East,79,0.0,2.0,81,0.00,,,0.00,,2013-01-23 04:22:00,
2013-01-22 20:32:00,48.0,42.0,29.99,NNW,327,0.0,0.0,81,0.00,,,0.00,,2013-01-23 04:32:00,
2013-01-22 20:42:00,48.0,42.0,29.99,NNW,327,0.0,0.0,81,0.00,,,0.00,,2013-01-23 04:42:00,
2013-01-22 20:52:00,47.0,41.0,29.99,NNW,327,0.0,0.0,79,0.00,,,0.00,,2013-01-23 04:52:00,
2013-01-22 21:03:00,47.0,41.0,29.99,NNW,327,0.0,0.0,79,0.00,,,0.00,,2013-01-23 05:03:00,
2013-01-22 21:12:00,47.0,41.0,29.99,NNW,327,0.0,0.0,79,0.00,,,0.00,,2013-01-23 05:12:00,
2013-01-22 21:22:00,47.0,41.0,29.99,NNW,327,0.0,0.0,81,0.00,,,0.00,,2013-01-23 05:22:00,
2013-01-22 21:32:00,47.0,42.0,30.00,NNW,327,0.0,0.0,82,0.00,,,0.00,,2013-01-23 05:32:00,
2013-01-22 21:42:00,47.0,42.0,30.00,NNW,327,0.0,0.0,82,0.00,,,0.00,,2013-01-23 05:42:00,
2013-01-22 21:52:00,46.0,41.0,30.01,NNW,327,0.0,0.0,84,0.00,,,0.00,,2013-01-23 05:52:00,
2013-01-22 22:02:00,46.0,42.0,30.01,ESE,107,1.0,3.0,85,0.00,,,0.00,,2013-01-23 06:02:00,
2013-01-22 22:12:00,46.0,42.0,30.01,ESE,107,1.0,3.0,85,0.00,,,0.00,,2013-01-23 06:12:00,
2013-01-22 22:22:00,45.0,41.0,30.01,NW,307,0.0,0.0,86,0.00,,,0.00,,2013-01-23 06:22:00,
2013-01-22 22:32:00,45.0,41.0,30.01,NW,307,0.0,0.0,87,0.00,,,0.00,,2013-01-23 06:32:00,
2013-01-22 22:42:00,45.0,41.0,30.01,NW,307,0.0,0.0,87,0.00,,,0.00,,2013-01-23 06:42:00,
2013-01-22 22:52:00,45.0,41.0,30.02,North,4,0.0,4.0,87,0.00,,,0.00,,2013-01-23 06:52:00,
2013-01-22 23:02:00,45.0,41.0,30.02,SE,134,2.0,4.0,87,0.00,,,0.00,,2013-01-23 07:02:00,
2013-01-22 23:11:00,45.0,41.0,30.02,SE,134,2.0,4.0,87,0.00,,,0.00,,2013-01-23 07:11:00,
2013-01-22 23:22:00,45.0,42.0,30.03,East,84,0.0,0.0,88,0.00,,,0.00,,2013-01-23 07:22:00,
2013-01-22 23:32:00,45.0,42.0,30.02,NW,321,0.0,2.0,88,0.00,,,0.00,,2013-01-23 07:32:00,
2013-01-22 23:42:00,45.0,42.0,30.02,NW,321,0.0,2.0,88,0.00,,,0.00,,2013-01-23 07:42:00,
2013-01-22 23:52:00,46.0,42.0,30.01,NNE,32,1.0,3.0,87,0.00,,,0.00,,2013-01-23 07:52:00,